Meteo pe oră la Abischthof

Astăzi, 29 Iulie, Joi

Timp Temperatura Precipitaţii Vânt Presiune Umiditate
00:00 +16°C° 0 mm 1 m/s 725 mmHg 93%
01:00 +16°C° 0 mm 1 m/s 725 mmHg 94%
02:00 +14°C° 0 mm 0 m/s 725 mmHg 94%
03:00 +14°C° 0 mm 0 m/s 725 mmHg 95%
04:00 +14°C° 0 mm 0 m/s 725 mmHg 95%
05:00 +14°C° 0 mm 0 m/s 725 mmHg 94%
06:00 +15°C° 0 mm 0 m/s 726 mmHg 92%
07:00 +16°C° 0 mm 0 m/s 726 mmHg 91%
08:00 +20°C° 0 mm 1 m/s 726 mmHg 82%
09:00 +22°C° 0 mm 1 m/s 726 mmHg 73%
10:00 +23°C° 0 mm 2 m/s 726 mmHg 65%
11:00 +24°C° 0 mm 2 m/s 725 mmHg 62%
12:00 +25°C° 0 mm 3 m/s 725 mmHg 59%
13:00 +26°C° 0 mm 3 m/s 725 mmHg 56%
14:00 +26°C° 0 mm 3 m/s 725 mmHg 55%
15:00 +26°C° 0 mm 3 m/s 725 mmHg 55%
16:00 +26°C° 0 mm 3 m/s 724 mmHg 55%
17:00 +25°C° 0 mm 2 m/s 724 mmHg 63%
18:00 +24°C° 0 mm 2 m/s 724 mmHg 71%
19:00 +22°C° 0 mm 1 m/s 724 mmHg 79%
20:00 +21°C° 0 mm 1 m/s 724 mmHg 82%
21:00 +19°C° 0 mm 1 m/s 724 mmHg 85%
22:00 +18°C° 0 mm 1 m/s 724 mmHg 88%
23:00 +15°C° 0 mm 0 m/s 724 mmHg 88%

Mâine, 30 Iulie, Vineri

Timp Temperatura Precipitaţii Vânt Presiune Umiditate
00:00 +15°C° 0 mm 0 m/s 724 mmHg 89%
01:00 +14°C° 0 mm 0 m/s 723 mmHg 89%
02:00 +14°C° 0 mm 0 m/s 723 mmHg 90%
03:00 +14°C° 0 mm 0 m/s 723 mmHg 91%
04:00 +14°C° 0 mm 0 m/s 723 mmHg 92%
05:00 +15°C° 0.1 mm 0 m/s 723 mmHg 91%
06:00 +16°C° 0.1 mm 0 m/s 723 mmHg 90%
07:00 +16°C° 0.1 mm 0 m/s 723 mmHg 89%
08:00 +19°C° 0 mm 0 m/s 723 mmHg 81%
09:00 +23°C° 0 mm 1 m/s 723 mmHg 74%
10:00 +25°C° 0 mm 1 m/s 723 mmHg 66%
11:00 +27°C° 0 mm 2 m/s 723 mmHg 61%
12:00 +28°C° 0 mm 2 m/s 722 mmHg 56%
13:00 +29°C° 0 mm 2 m/s 722 mmHg 51%
14:00 +29°C° 0.1 mm 3 m/s 722 mmHg 55%
15:00 +28°C° 0.1 mm 3 m/s 721 mmHg 59%
16:00 +28°C° 0.1 mm 3 m/s 721 mmHg 64%
17:00 +26°C° 2.4 mm 3 m/s 721 mmHg 74%
18:00 +22°C° 2.4 mm 3 m/s 721 mmHg 84%
19:00 +20°C° 2.4 mm 3 m/s 721 mmHg 94%
20:00 +19°C° 3.8 mm 2 m/s 722 mmHg 95%
21:00 +18°C° 3.8 mm 2 m/s 722 mmHg 97%
22:00 +18°C° 3.8 mm 2 m/s 723 mmHg 98%
23:00 +18°C° 0.4 mm 2 m/s 723 mmHg 98%

Poimâine, 31 Iulie, Sâmbătă

Timp Temperatura Precipitaţii Vânt Presiune Umiditate
00:00 +19°C° 0.4 mm 1 m/s 723 mmHg 97%
01:00 +19°C° 0.4 mm 1 m/s 723 mmHg 97%
02:00 +18°C° 0 mm 1 m/s 723 mmHg 96%
03:00 +18°C° 0 mm 1 m/s 723 mmHg 96%
04:00 +16°C° 0 mm 1 m/s 723 mmHg 96%
05:00 +18°C° 0 mm 1 m/s 723 mmHg 95%
06:00 +18°C° 0 mm 1 m/s 723 mmHg 94%
07:00 +18°C° 0 mm 1 m/s 723 mmHg 93%
08:00 +19°C° 0 mm 1 m/s 723 mmHg 86%
09:00 +20°C° 0 mm 1 m/s 723 mmHg 79%
10:00 +20°C° 0 mm 2 m/s 723 mmHg 72%
11:00 +21°C° 0 mm 2 m/s 723 mmHg 67%
12:00 +23°C° 0 mm 2 m/s 723 mmHg 62%
13:00 +24°C° 0 mm 2 m/s 722 mmHg 57%
14:00 +24°C° 0 mm 2 m/s 722 mmHg 57%
15:00 +24°C° 0 mm 2 m/s 722 mmHg 58%
16:00 +24°C° 0 mm 2 m/s 722 mmHg 58%
17:00 +23°C° 0.2 mm 2 m/s 721 mmHg 66%
18:00 +20°C° 0.2 mm 2 m/s 721 mmHg 74%
19:00 +20°C° 0.2 mm 1 m/s 721 mmHg 82%
20:00 +19°C° 0.7 mm 1 m/s 721 mmHg 87%
21:00 +18°C° 0.7 mm 1 m/s 722 mmHg 91%
22:00 +16°C° 0.7 mm 1 m/s 722 mmHg 95%
23:00 +16°C° 2.4 mm 1 m/s 722 mmHg 96%

1 August, Duminică

Timp Temperatura Precipitaţii Vânt Presiune Umiditate
00:00 +16°C° 2.4 mm 1 m/s 722 mmHg 97%
01:00 +15°C° 2.4 mm 1 m/s 721 mmHg 98%
02:00 +15°C° 3.7 mm 1 m/s 721 mmHg 98%
03:00 +15°C° 3.7 mm 1 m/s 721 mmHg 98%
04:00 +15°C° 3.7 mm 1 m/s 721 mmHg 98%
05:00 +14°C° 2 mm 1 m/s 722 mmHg 98%
06:00 +13°C° 2 mm 0 m/s 722 mmHg 98%
07:00 +13°C° 2 mm 0 m/s 722 mmHg 97%
08:00 +13°C° 0.9 mm 0 m/s 722 mmHg 97%
09:00 +15°C° 0.9 mm 1 m/s 723 mmHg 96%
10:00 +15°C° 0.9 mm 1 m/s 723 mmHg 96%
11:00 +15°C° 0.2 mm 1 m/s 723 mmHg 94%
12:00 +15°C° 0.2 mm 1 m/s 723 mmHg 93%
13:00 +16°C° 0.2 mm 1 m/s 723 mmHg 91%
14:00 +17°C° 0.1 mm 2 m/s 723 mmHg 83%
15:00 +18°C° 0.1 mm 2 m/s 723 mmHg 74%
16:00 +20°C° 0.1 mm 2 m/s 723 mmHg 66%
17:00 +20°C° 0.2 mm 1 m/s 723 mmHg 73%
18:00 +19°C° 0.2 mm 1 m/s 723 mmHg 80%
19:00 +18°C° 0.2 mm 1 m/s 723 mmHg 88%
20:00 +16°C° 0.2 mm 1 m/s 723 mmHg 90%
21:00 +15°C° 0.2 mm 1 m/s 723 mmHg 92%
22:00 +14°C° 0.2 mm 1 m/s 724 mmHg 94%
23:00 +13°C° 0 mm 1 m/s 724 mmHg 95%

2 August, Luni

Timp Temperatura Precipitaţii Vânt Presiune Umiditate
00:00 +13°C° 0 mm 1 m/s 724 mmHg 95%
01:00 +12°C° 0 mm 1 m/s 724 mmHg 95%
02:00 +12°C° 0 mm 1 m/s 724 mmHg 95%
03:00 +12°C° 0 mm 1 m/s 724 mmHg 96%
04:00 +12°C° 0 mm 1 m/s 724 mmHg 96%
05:00 +11°C° 0 mm 0 m/s 725 mmHg 95%
06:00 +12°C° 0 mm 0 m/s 725 mmHg 94%
07:00 +13°C° 0 mm 0 m/s 725 mmHg 93%
08:00 +16°C° 0 mm 1 m/s 725 mmHg 83%
09:00 +19°C° 0 mm 1 m/s 725 mmHg 73%
10:00 +21°C° 0 mm 1 m/s 725 mmHg 63%
11:00 +22°C° 0 mm 1 m/s 725 mmHg 58%
12:00 +23°C° 0 mm 1 m/s 725 mmHg 53%
13:00 +24°C° 0 mm 1 m/s 725 mmHg 48%
14:00 +24°C° 0 mm 1 m/s 725 mmHg 48%
15:00 +25°C° 0 mm 1 m/s 725 mmHg 49%
16:00 +25°C° 0 mm 1 m/s 724 mmHg 49%
17:00 +23°C° 0 mm 1 m/s 724 mmHg 58%
18:00 +22°C° 0 mm 1 m/s 724 mmHg 68%
19:00 +20°C° 0 mm 1 m/s 724 mmHg 77%
20:00 +19°C° 0 mm 1 m/s 724 mmHg 80%
21:00 +18°C° 0 mm 1 m/s 725 mmHg 83%
22:00 +15°C° 0 mm 1 m/s 725 mmHg 86%
23:00 +15°C° 0.1 mm 1 m/s 725 mmHg 88%

3 August, Marţi

Timp Temperatura Precipitaţii Vânt Presiune Umiditate
00:00 +13°C° 0.1 mm 0 m/s 725 mmHg 89%
01:00 +13°C° 0.1 mm 0 m/s 725 mmHg 91%
02:00 +13°C° 0 mm 0 m/s 725 mmHg 91%
03:00 +12°C° 0 mm 0 m/s 725 mmHg 92%
04:00 +12°C° 0 mm 0 m/s 725 mmHg 93%
05:00 +13°C° 0 mm 0 m/s 725 mmHg 91%
06:00 +14°C° 0 mm 0 m/s 725 mmHg 89%
07:00 +15°C° 0 mm 0 m/s 725 mmHg 87%
08:00 +17°C° 0 mm 0 m/s 725 mmHg 78%
09:00 +19°C° 0 mm 0 m/s 725 mmHg 70%
10:00 +21°C° 0 mm 0 m/s 725 mmHg 62%
11:00 +24°C° 0 mm 1 m/s 725 mmHg 57%
12:00 +25°C° 0 mm 1 m/s 724 mmHg 52%
13:00 +26°C° 0 mm 1 m/s 724 mmHg 47%
14:00 +26°C° 0 mm 1 m/s 724 mmHg 50%
15:00 +26°C° 0 mm 1 m/s 724 mmHg 52%
16:00 +25°C° 0 mm 2 m/s 724 mmHg 55%
17:00 +23°C° 0.2 mm 1 m/s 723 mmHg 65%
18:00 +21°C° 0.2 mm 1 m/s 723 mmHg 75%
19:00 +19°C° 0.2 mm 1 m/s 723 mmHg 85%
20:00 +19°C° 0.2 mm 1 m/s 723 mmHg 87%
21:00 +18°C° 0.2 mm 1 m/s 723 mmHg 89%
22:00 +16°C° 0.2 mm 1 m/s 723 mmHg 91%
23:00 +16°C° 0.2 mm 1 m/s 723 mmHg 93%
Arată mai mult

Formular de consimțământ

Meteoprog și furnizorii noștri de servicii pot stoca și accesa date personale, precum cookies, identificatori de dispozitiv sau alte tehnologii similare pe dispozitivul dumneavoastră și procesa astfel de date pentru a personaliza conținutul și reclamele, dar și pentru a oferi caracteristici de social media și pentru a analiza traficul.

  • Stocarea și/sau accesarea informațiilor pe dispozitivul dumneavoastră

    Cookies, identificatori de dispozitiv sau alte informații pot fi stocate sau accesate pe dispozitiv în scopurile indicate mai sus.

  • Reclame și conținut personalizat, evaluarea reclamelor și a conținutului, informații despre audiențe și dezvoltarea produselor

    Reclamele și conținutul pot fi personalizate pe baza unui profil. Pot fi adăugate date suplimentare pentru a personaliza mai bine reclamele și conținutul. Performanța reclamelor și conținutului poate fi măsurată. Pot fi obținute informații despre utilizatorii care au văzut reclamele și conținutul. Aceste date pot fi utilizate pentru a dezvolta sau îmbunătăți experiența utilizatorilor, sistemele și software-ul.

Dând clic pe ‘Sunt de acord’, permiteți utilizarea cookie-urilor menționate, a identificatorilor de dispozitiv, balizelor web sau altor tehnologii similare. Setările pot fi modificate din browser-ul dispozitivului dumneavoastră.

În anumite scopuri, interesele legitime pot prima asupra consimțământului. Puteți citi mai multe informații în acest sens în Politica privind Confidențialitatea Datelor și Cookie.